Location: Gro�sch�nbrunn
(49.5760°N, 11.8868°E)
Time: 09:27:58
(UTC+00:00)

N. Korean satellite - Pass Details

Date: 29 November 2020
Orbit: 453 x 502 km, 97.2° (Epoch: 16 January)

Event Time Altitude Azimuth Distance (km) Brightness Sun altitude
Rises 05:00:13 0° 11° (N) 2,551 10.2 -16.3°
Reaches altitude 10° 05:02:17 10° 9° (N) 1,675 9.2 -16.0°
Maximum altitude 05:05:52 72° 285° (WNW) 520 6.4 -15.5°
Drops below altitude 10° 05:09:29 10° 201° (SSW) 1,687 9.2 -14.9°
Sets 05:11:34 0° 199° (SSW) 2,570 10.2 -14.6°
